Flag for Brazil Weather past 2 weeks in Ribeirão Prêto, São Paulo, Brazil

Now
73 °F

Passing clouds.


Feels Like: 77 °F
Forecast: 56 / 77 °F
Wind: 10 mph from Southeast

Location: Leite Lopes / Ribeir

Current Time: Jul 28, 2014 at 12:37:16 PM

Latest Report: Jul 28, 2014 at 12:00 PM


Visibility: N/A

Pressure: 30.30 "Hg

Humidity: 57%

Dew point: 57 °F

Location of Ribeirão PrêtoLocation

Historic Weather in Ribeirão Prêto — Graph

°F

Ribeirão Prêto temperature yesterday

Maximum temperature yesterday: 66 °F (at 12:00 PM)
Minimum temperature yesterday: 61 °F (at 3:00 AM)
Average temperature yesterday: 64 °F

Past Weeks' High & Low Weather Summary

 TemperatureHumidityPressure
High86 °F (Jul 17, 3:00 PM)94% (Jul 24, 9:00 PM)30.33 "Hg (Jul 24, 9:00 PM)
Low48 °F (Jul 20, 3:00 AM)15% (Jul 20, 5:00 PM)29.98 "Hg (Jul 23, 4:00 PM)
Average67 °F62%30.15 "Hg
* Reported Jul 13 11:00 AM — Jul 28 11:00 AM, Ribeirão Prêto, Weather by CustomWeather, © 2014

Note: Actual official high and low records may vary slightly from our data, if they occured in-between our weather recording intervals... More about our weather records

Advertising

Ribeirão Prêto weather history for previous 24 hours

 ConditionsComfort  
Time TempWeatherWind HumidityBarometerVisibility
11:00 AM
Jul 28
68 °FPassing clouds.8 mph73%30.33 "HgN/A
10:00 AM66 °FPassing clouds.8 mph78%30.33 "HgN/A
9:00 AM63 °FPassing clouds.8 mph83%30.30 "HgN/A
8:00 AM59 °FScattered clouds.3 mph94%30.30 "HgN/A
7:00 AM59 °FBroken clouds.6 mph94%30.27 "Hg6 mi
6:00 AM59 °FPartly sunny.6 mph94%30.27 "Hg6 mi
5:00 AM59 °FFog.7 mph94%30.24 "Hg1 mi
4:00 AM59 °FFog.5 mph94%30.24 "Hg1 mi
3:00 AM59 °FPassing clouds.5 mph94%30.24 "Hg4 mi
2:00 AM59 °FFog.No wind94%30.24 "Hg3 mi
1:00 AM61 °FLow clouds.7 mph94%30.24 "Hg4 mi
12:00 AM61 °FClear.5 mph94%30.27 "Hg10 mi
11:00 PM
Jul 27
63 °FClear.6 mph88%30.27 "Hg6 mi
10:00 PM63 °FMostly cloudy.3 mph94%30.27 "HgN/A
9:00 PM63 °FDrizzle. Mostly cloudy.5 mph94%30.27 "Hg3 mi
8:00 PM63 °FOvercast.7 mph94%30.27 "HgN/A
7:00 PM66 °FMostly cloudy.3 mph83%30.24 "HgN/A
6:00 PM66 °FMostly cloudy.No wind78%30.24 "Hg6 mi
5:00 PM66 °FOvercast.No wind78%30.21 "Hg5 mi
4:00 PM66 °FMostly cloudy.2 mph83%30.21 "Hg5 mi
3:00 PM66 °FMostly cloudy.1 mph83%30.21 "Hg4 mi
2:00 PM66 °FMostly cloudy.5 mph88%30.21 "Hg4 mi
1:00 PM66 °FMore clouds than sun.No wind78%30.24 "HgN/A
12:00 PM66 °FMore clouds than sun.No wind83%30.24 "HgN/A
Weather by CustomWeather, © 2014

See weather overviewHow to use our weather pages